Hourly Weather Roundup
Issued by NWS Central Illinois

Home | Current Version | Previous Version | Text Only | Print | Product List | Glossary On
Versions: 1 2 3 4 5 6 7 8 9 10 11 12 13 14 15 16 17 18 19 20 21 22 23 24 25 26 27 28 29 30 31 32 33 34 35 36 37 38 39 40 41 42 43 44 45 46 47 48 49 50
000
NZUS43 KILX 290210
HWRILX

AREA WEATHER ROUNDUP
NATIONAL WEATHER SERVICE, LINCOLN IL
900 PM CDT TUE JUL 28 2015


CITY           SKY/WX    TMP DP  RH WIND       PRES   REMARKS
BLOOMINGTON    MOCLDY    76  73  90 SE3       29.97R
CHAMPAIGN      MOCLDY    75  73  93 CALM      29.97R
DANVILLE       MOCLDY    76  74  94 W3        29.94R
DECATUR        MOCLDY    78  73  84 SE3       29.97R HX  81
EFFINGHAM      MOCLDY    78  74  86 CALM      29.98R HX  81
FLORA          MOCLDY    79  75  87 CALM      29.97R HX  83
GALESBURG      LGT RAIN  81  78  91 SE5       29.91F HX  89
JACKSONVILLE   PTCLDY    86  81  85 CALM      29.93R HX 101
LACON          CLOUDY    76  73  91 SE3       29.93S
LAWRENCEVILLE  MOCLDY    82  77  84 SW5       29.96R HX  90
LITCHFIELD     MOCLDY    81  76  85 E3        29.96R HX  87
$$


CITY           SKY/WX    TMP DP  RH WIND       PRES   REMARKS
LINCOLN        MOCLDY    78  73  83 SE5       29.94S HX  81
MACOMB         CLEAR     81  79  92 CALM      29.95R HX  90
MATTOON        MOCLDY    77  72  84 CALM      29.96R
MT CARMEL AP   MOCLDY    82  77  83 SW6       29.96R HX  91
OLNEY-NOBLE AP MOCLDY    79  77  94 CALM      29.97R HX  83
PARIS          MOCLDY    77  75  93 W3        29.98R
PEORIA         MOCLDY    83  73  72 SE5       29.94R HX  89
PONTIAC        MOCLDY    76  75  96 CALM      29.96R
RANTOUL        MOCLDY    78  76  94 CALM      29.97R HX  80
ROBINSON       PTCLDY    78  76  94 W3        29.96R HX  82
SPRINGFIELD    MOCLDY    83  75  77 SE7       29.94R HX  90
TAYLORVILLE    CLOUDY    79  75  89 SE5       29.96R HX  82
$$

...REGIONAL REPORTS...


CITY           SKY/WX    TMP DP  RH WIND       PRES   REMARKS
CHICAGO O`HARE MOCLDY    83  72  69 SW6       29.94R HX  88
KANKAKEE       MOCLDY    80  77  91 CALM      29.95R HX  85
MOLINE         MOCLDY    81  74  79 E3        29.87F HX  86
MOUNT STERLING NOT AVBL
MOUNT VERNON   CLOUDY    79  72  78 S7        29.98R HX  82
PITTSFIELD     PTCLDY    84  80  87 CALM      29.94R HX  98
QUINCY         CLEAR     86  80  82 CALM      29.92R HX 101
ROCKFORD       MOCLDY    80  72  76 S7        29.94S HX  84
$$


CITY           SKY/WX    TMP DP  RH WIND       PRES   REMARKS
BURLINGTON     MOCLDY    81  74  79 NW8G20    29.90F HX  86
CEDAR RAPIDS   CLOUDY    72  72 100 NE3       29.89F
DES MOINES     TSTM      72  68  87 SE15      29.96R FOG
KIRKSVILLE     CLEAR     83  76  79 E6        29.93R HX  91
OTTUMWA          N/A    N/A N/A N/A MISG      29.89S
ST LOUIS       MOCLDY    92  75  57 S6        29.94R HX 103
$$


CITY           SKY/WX    TMP DP  RH WIND       PRES   REMARKS
TERRE HAUTE    PTCLDY    81  76  84 W6        29.96R HX  87
EVANSVILLE     CLOUDY    79  73  82 SW10      29.99R HX  82
INDIANAPOLIS   PTCLDY    81  73  76 CALM      29.96R HX  86
LAFAYETTE      PTCLDY    78  75  90 CALM      29.95R HX  81
MADISON        MOCLDY    81  71  71 VRB3      29.91S HX  85
MILWAUKEE      MOCLDY    78  67  68 SE7       29.93R HX  80
$$




USA.gov is the U.S. government's official web portal to all federal, state and local government web resources and services.